Location: Unspecified
(51.0950°N, 12.9690°E)
Time: 19:12:00
(UTC+00:00)

BUGSAT 1 - Pass Details

Date: 17 May 2025
Orbit: 512 x 554 km, 98.1° (Epoch: 16 June)

Event Time Altitude Azimuth Distance (km) Brightness Sun altitude
Exits shadow 20:00:23 11° 153° (SSE) 1,718 ? -8.7°
Maximum altitude 20:04:02 65° 72° (ENE) 576 ? -9.1°
Drops below altitude 10° 20:07:46 10° 351° (N) 1,753 ? -9.5°
Sets 20:09:53 0° 348° (NNW) 2,643 ? -9.7°
